Regional Weather Roundup
Issued by NWS

Home | Current Version | Previous Version | Graphics & Text | Print | Product List | Glossary On
Versions: 1 2 3 4 5 6 7 8 9 10 11 12 13 14 15 16 17 18 19 20 21 22 23 24 25 26 27 28 29 30 31 32 33 34 35 36 37 38 39 40 41 42 43 44 45 46 47 48 49 50
000
ASUS43 KLMK 271310
RWRKY
KENTUCKY REGIONAL WEATHER ROUNDUP
NATIONAL WEATHER SERVICE LOUISVILLE KY
900 AM EDT FRI MAY 27 2016

NOTE "FAIR" INDICATES FEW OR NO CLOUDS BELOW 12,000 FEET
WITH NO SIGNIFICANT WEATHER AND/OR OBSTRUCTIONS TO VISIBILITY.

KYZ001>023-026-027-061>063-070>075-271400-
WESTERN AND SOUTH CENTRAL KENTUCKY

CITY           SKY/WX    TMP DP  RH WIND       PRES   REMARKS
PADUCAH        CLOUDY    70  66  87 CALM      29.95R
HENDERSON      CLOUDY    72  64  78 S9G16     29.96S
OWENSBORO      CLOUDY    73  67  81 S10       30.00R
HOPKINSVILLE   CLOUDY    71  65  82 SE9       30.01R
BOWLING GREEN  MOSUNNY   72  66  81 S5        30.04S
GLASGOW        CLOUDY    72  64  75 S6        30.05S
$$

KYZ024-025-028>034-038-045-046-053-271400-
NORTH CENTRAL KENTUCKY

CITY           SKY/WX    TMP DP  RH WIND       PRES   REMARKS
LOUISVILLE/SDF PTSUNNY   71  64  78 SE8       30.03R
LOUISVILLE/LOU MOSUNNY   70  64  81 S8        30.04R
FORT KNOX      PTSUNNY   70  66  87 SE7       30.02S
$$

KYZ035>037-039>044-047>052-055>060-089>105-271400-
NORTHEAST KENTUCKY

CITY           SKY/WX    TMP DP  RH WIND       PRES   REMARKS
LEXINGTON      SUNNY     71  64  78 S7        30.07S
COVINGTON      MOSUNNY   70  64  81 SW10      30.05R
FRANKFORT      MOSUNNY   69  63  81 SE5       30.05R
$$

KYZ054-064>069-076>088-106>120-271400-
SOUTHEAST KENTUCKY

CITY           SKY/WX    TMP DP  RH WIND       PRES   REMARKS
JACKSON        SUNNY     71  62  73 VRB3      30.11S
LONDON         SUNNY     72  62  71 S6        30.11R
SOMERSET       SUNNY     68  64  88 S5        30.11R
MIDDLESBORO    SUNNY     67  64  89 CALM      30.14S
MONTICELLO     SUNNY     73  66  78 NE7       30.11R
$$





USA.gov is the U.S. government's official web portal to all federal, state and local government web resources and services.